Terug naar catalogus

STARLINK-11312

ActiefCommunicatieVLEO
NORAD 61689·PAYLOAD·🇺🇸 United States

Gelanceerd Oct 30, 2024 vanaf Vandenberg Space Force Base

Loading…

Volgende Passages (komende 24 uur)

TLE

VersSource: CelesTrak SupGP

Epoch: Sep 14, 2026, 20:48 UTC

1 61689C 24195C   26257.86715278  .00012721  00000+0  10474-3 0  2575
2 61689  53.1570 173.9215 0001131 105.9026 226.4074 15.69713925    14

Volg STARLINK-11312 in realtime met AllMySat

Download on the App Store